Wind_Speed
17 13 17 25 26 26 24 22 19 18 16 15 14 14 14 14 15 15 14 14 14 14 14 15 14 14 13 15 19 20 19 19 21 22 22 21 20 20 20 21 20 17 16
23 19 17 20 27 29 28 25 22 19 19 17 17 16 17 17 16 15 15 16 14 12 14 14 14 14 13 14 16 18 18 19 18 19 22 21 21 23 23 20 21 20 21
27 25 22 22 24 31 30 28 25 23 22 20 19 17 16 16 15 15 16 15 16 14 13 15 15 15 15 16 14 14 14 15 16 16 18 20 21 22 22 23 20 18 16
35 34 29 26 26 27 32 31 29 27 25 24 21 19 19 18 17 16 15 15 14 15 15 16 17 17 17 17 17 18 18 19 19 20 20 21 21 22 20 20 19 17 15
38 38 38 27 26 27 31 33 33 30 27 26 25 22 21 20 19 18 18 18 18 19 18 16 16 18 20 21 23 23 25 25 24 22 21 20 20 21 20 19 19 19 18
49 43 42 41 29 26 30 32 31 27 24 26 25 23 22 19 19 19 20 20 19 18 18 19 21 23 23 26 27 25 27 25 24 23 21 20 21 22 21 22 23 21 19
47 29 37 42 34 31 32 32 32 31 29 28 27 24 22 21 20 20 20 20 21 21 21 24 27 27 27 24 24 25 23 23 21 20 21 24 25 24 24 25 26 26 25
41 39 38 45 39 35 33 33 31 30 32 31 28 25 23 22 20 21 21 23 26 26 27 29 31 31 29 23 23 23 24 24 22 22 25 26 26 27 25 24 21 21 20
35 32 35 47 47 41 36 36 35 34 33 31 28 26 23 21 22 24 25 26 27 26 27 26 30 30 26 23 21 26 26 25 25 24 24 25 28 25 18 11 12 14 15
28 31 37 35 43 45 40 39 38 35 34 31 30 28 24 22 22 26 28 29 28 27 29 25 23 21 22 24 28 30 28 24 22 14 8 7 3 6 9 15 19 19 19
20 19 28 27 28 43 38 40 38 37 38 38 37 32 27 26 25 28 26 23 21 21 20 16 14 14 12 6 8 12 10 10 7 7 9 10 7 11 14 14 15 16 16
25 20 25 34 38 44 34 27 34 33 29 38 36 35 30 28 23 25 18 20 17 14 11 8 7 5 1 2 4 6 11 15 15 15 16 17 17 13 16 22 22 23 23
8 14 24 26 33 44 45 31 23 23 23 17 22 19 15 11 10 8 9 4 5 11 10 11 2 5 9 12 15 14 16 18 20 22 23 23 22 21 23 25 26 27 28
12 19 21 21 29 29 17 16 24 14 8 11 13 13 11 11 12 10 7 4 6 9 11 12 8 10 11 11 12 14 15 16 18 19 19 21 22 24 25 26 26 28 28
20 23 26 27 32 28 21 21 20 15 11 14 14 13 12 11 11 9 7 6 5 5 6 9 10 11 14 17 19 21 22 22 23 23 23 24 25 25 25 26 28 30 31
13 14 15 11 13 20 18 18 16 11 10 12 10 9 9 7 5 4 6 6 5 7 8 11 13 15 17 19 20 21 22 23 24 25 26 27 28 28 29 29 30 31 32
9 13 14 10 12 9 14 14 9 9 11 11 10 10 10 10 9 7 6 6 8 11 12 14 15 17 19 21 22 24 24 26 27 28 29 30 31 33 33 33 33 32 31
13 13 12 12 12 14 12 10 9 8 8 8 8 7 6 6 6 6 8 10 11 13 14 15 16 18 19 21 22 23 23 24 25 27 28 29 30 29 29 29 30 31 30
10 9 9 10 10 10 9 9 8 7 6 6 6 6 6 5 5 7 8 10 11 12 13 15 16 18 19 21 22 22 22 23 24 25 27 30 32 33 33 32 29 26 26
10 11 10 10 9 9 9 8 8 7 7 6 5 3 3 5 6 7 9 10 10 11 12 13 14 14 15 17 19 20 24 28 29 26 25 25 25 23 25 19 20 23 25
7 8 7 6 5 5 7 7 7 5 5 4 3 3 6 8 10 10 10 11 12 13 16 19 19 18 20 22 26 28 28 27 25 24 21 22 24 26 26 18 17 19 22
6 5 5 6 6 7 7 5 3 3 2 4 4 8 9 10 10 11 15 17 18 20 22 21 22 23 26 29 32 32 30 30 29 28 27 28 26 30 19 23 23 20 22
8 6 6 7 7 6 5 4 3 4 5 6 7 8 9 11 14 16 18 19 19 21 22 21 22 25 27 29 29 28 28 28 28 29 28 31 31 19 18 17 19 22 22
7 6 8 9 8 7 6 5 4 5 6 8 10 12 13 14 16 17 18 20 22 23 23 23 24 26 28 27 26 26 27 26 26 29 28 25 22 17 21 20 19 25 29
8 8 9 10 8 7 6 5 4 6 9 10 12 14 15 16 18 19 18 19 21 22 23 24 22 23 26 26 24 24 23 25 27 30 30 27 23 21 19 20 27 30 29
10 10 11 12 9 7 8 6 7 10 11 12 13 14 15 16 16 18 19 19 20 21 22 23 22 21 23 23 21 21 22 26 29 31 29 26 23 20 17 21 23 21 18
Wind_Direction
257 263 255 243 239 231 233 230 237 240 219 205 210 217 222 230 235 235 240 247 248 250 258 267 265 258 260 268 275 279 285 285 283 286 289 286 289 293 302 303 307 305 299
255 256 266 254 245 241 233 230 234 229 224 218 218 224 228 231 235 234 239 247 245 247 257 267 262 262 263 272 276 275 274 278 279 277 278 281 283 289 296 297 300 294 305
247 246 255 267 255 244 240 231 229 228 225 226 228 232 234 236 241 239 244 245 250 256 260 267 268 271 273 281 277 275 275 283 292 289 283 284 286 286 292 297 291 296 299
242 243 246 258 263 255 242 236 230 226 227 226 232 235 237 241 242 241 239 242 246 256 259 266 267 271 277 281 280 276 275 277 282 283 283 282 283 285 288 293 292 298 291
234 236 235 236 253 254 242 237 234 231 232 234 233 234 237 243 244 245 247 247 254 256 261 267 270 273 275 272 269 271 275 277 280 279 276 276 278 281 283 286 287 288 283
241 247 235 244 223 233 234 233 232 231 223 226 228 231 238 239 238 240 242 246 249 253 257 257 269 283 284 280 277 275 281 276 277 274 272 273 273 273 278 280 285 286 281
243 237 250 237 224 215 224 224 221 223 224 226 229 230 234 236 238 242 245 249 256 258 260 267 279 281 286 278 277 276 273 272 272 271 279 278 274 272 272 276 278 279 279
240 241 241 215 224 224 216 221 220 218 221 224 224 227 230 236 243 253 256 257 259 264 267 272 280 282 282 274 273 271 268 268 266 274 284 281 275 273 270 271 263 265 267
246 238 245 234 212 221 215 216 216 215 218 221 224 229 235 242 254 258 265 267 268 272 278 282 280 280 273 273 274 275 267 265 266 274 281 276 266 267 259 254 265 267 266
251 234 211 228 231 214 214 215 215 214 216 222 228 232 237 249 269 276 280 272 270 275 287 273 275 267 260 264 268 267 263 254 266 253 229 206 229 259 265 271 269 267 279
219 199 217 219 240 202 216 218 215 218 223 222 226 227 237 257 266 284 277 271 269 269 249 258 259 257 254 274 265 239 213 208 239 271 258 267 272 286 291 297 303 284 280
207 221 212 198 200 214 230 228 215 222 241 224 217 235 245 249 262 277 263 232 231 228 217 169 116 154 129 84 307 253 251 243 260 255 267 271 273 267 273 270 269 272 268
59 98 141 159 189 213 216 210 207 208 215 204 221 228 231 199 205 229 229 111 177 174 176 164 1 201 242 253 267 269 267 262 266 269 270 272 281 282 280 276 270 267 268
81 67 89 96 115 106 109 141 108 98 111 150 156 153 171 171 184 167 145 161 209 242 239 239 222 233 248 280 287 285 286 291 294 288 286 285 287 284 279 278 277 278 280
78 89 98 106 98 104 118 129 133 140 132 145 144 135 140 143 139 131 138 152 172 217 242 254 253 256 260 266 274 279 283 284 281 281 279 282 281 280 281 282 283 283 283
133 129 128 127 116 140 143 154 152 155 164 168 169 174 178 181 189 235 239 244 256 261 269 275 276 277 276 276 278 280 283 284 285 285 284 284 285 285 284 283 283 283 285
128 140 148 151 139 145 156 158 158 147 153 162 171 175 186 205 227 247 264 274 276 277 277 281 286 288 289 290 291 292 290 290 291 290 288 287 285 284 284 284 285 286 287
136 140 138 137 135 141 154 157 162 165 170 171 173 184 198 222 245 268 281 282 280 284 289 295 298 300 300 299 298 299 301 301 301 302 302 301 298 292 290 290 290 291 291
141 148 153 155 156 163 165 167 173 177 181 185 195 205 219 233 248 262 273 283 292 300 305 304 303 306 306 304 305 307 306 303 304 303 301 299 298 300 303 305 305 300 294
161 165 175 176 178 182 175 172 180 180 174 178 184 200 237 254 271 289 295 297 306 312 310 307 309 309 305 305 308 312 315 316 318 319 316 311 307 306 305 295 300 305 304
201 200 191 185 173 182 177 183 185 179 176 188 194 254 285 299 312 317 314 316 328 331 329 327 326 321 317 317 319 321 325 324 322 316 311 311 313 303 310 292 316 323 332
199 204 199 194 189 200 215 225 203 201 233 260 271 275 288 309 317 329 335 337 338 337 335 331 329 325 324 322 320 322 324 323 321 319 315 317 309 314 289 279 310 297 308
204 207 227 228 229 235 252 260 256 253 256 255 264 283 307 323 333 336 333 328 325 322 319 321 320 317 315 314 314 315 315 315 315 314 311 310 310 310 300 295 299 295 304
211 208 223 228 225 221 222 237 261 276 280 290 308 318 321 320 323 322 320 317 318 315 314 314 313 313 312 311 311 312 315 312 314 316 304 308 311 291 310 309 300 312 316
214 214 228 239 231 229 235 243 260 273 284 294 297 303 308 312 314 313 312 306 305 307 309 310 311 309 306 308 311 312 311 312 316 314 308 304 298 303 301 314 317 309 301
226 229 230 241 245 244 251 262 269 275 280 280 286 295 298 298 301 301 299 299 297 300 303 303 306 304 304 310 310 311 311 315 315 313 307 298 295 299 291 298 295 299 304
Height
3187 3188 3190 3192 3195 3197 3198 3200 3202 3204 3205 3206 3207 3208 3209 3209 3210 3211 3212 3212 3213 3214 3215 3215 3216 3216 3216 3215 3214 3213 3212 3212 3211 3210 3208 3207 3206 3204 3202 3200 3199 3198 3196
3183 3185 3188 3189 3191 3193 3195 3197 3198 3200 3201 3203 3204 3206 3207 3208 3208 3209 3209 3209 3210 3211 3212 3212 3212 3212 3212 3211 3210 3208 3208 3207 3206 3206 3204 3202 3202 3199 3198 3197 3195 3194 3192
3176 3179 3182 3185 3186 3188 3191 3194 3194 3196 3197 3199 3200 3202 3204 3204 3204 3205 3205 3206 3207 3207 3208 3208 3209 3208 3208 3207 3206 3204 3203 3204 3203 3201 3200 3199 3198 3196 3194 3193 3191 3189 3187
3167 3171 3175 3178 3181 3183 3186 3188 3190 3191 3193 3196 3197 3197 3199 3199 3200 3201 3202 3202 3203 3203 3203 3204 3204 3203 3203 3202 3201 3200 3199 3199 3198 3197 3196 3195 3194 3193 3191 3189 3187 3186 3184
3156 3161 3164 3169 3173 3176 3179 3181 3185 3186 3188 3190 3191 3193 3193 3195 3196 3196 3197 3198 3198 3198 3199 3199 3199 3198 3197 3196 3195 3195 3193 3192 3191 3190 3189 3189 3188 3187 3186 3184 3183 3182 3180
3142 3150 3154 3161 3162 3167 3172 3175 3178 3181 3183 3186 3186 3187 3188 3189 3190 3191 3191 3192 3192 3193 3193 3193 3192 3192 3190 3189 3188 3188 3188 3186 3185 3184 3183 3183 3183 3182 3180 3179 3178 3177 3176
3118 3132 3141 3153 3156 3156 3164 3167 3170 3174 3178 3179 3180 3181 3182 3184 3185 3185 3185 3186 3186 3186 3186 3186 3185 3185 3183 3182 3182 3181 3181 3180 3180 3179 3179 3178 3177 3176 3175 3173 3171 3170 3170
3121 3125 3133 3138 3146 3152 3153 3160 3163 3165 3168 3171 3172 3175 3177 3179 3179 3179 3179 3179 3179 3179 3179 3178 3177 3176 3175 3174 3174 3174 3173 3174 3174 3174 3173 3171 3170 3168 3167 3166 3164 3163 3163
3115 3116 3119 3126 3130 3141 3144 3150 3154 3157 3158 3162 3166 3168 3169 3170 3172 3172 3172 3172 3172 3172 3171 3170 3169 3167 3166 3166 3166 3166 3166 3166 3166 3165 3164 3164 3162 3161 3160 3160 3159 3158 3156
3104 3106 3114 3115 3124 3131 3136 3142 3145 3148 3151 3154 3158 3160 3161 3163 3164 3164 3164 3163 3163 3164 3163 3162 3161 3160 3159 3159 3158 3158 3157 3157 3159 3158 3156 3156 3157 3158 3156 3157 3154 3153 3151
3094 3098 3106 3106 3108 3112 3129 3135 3140 3144 3145 3145 3149 3151 3151 3154 3155 3155 3155 3154 3156 3157 3156 3157 3156 3156 3156 3154 3154 3154 3153 3153 3153 3153 3152 3152 3151 3151 3150 3149 3149 3148 3148
3087 3092 3095 3099 3105 3110 3115 3118 3114 3128 3138 3136 3134 3139 3142 3144 3147 3151 3150 3149 3150 3152 3152 3153 3153 3153 3154 3153 3152 3152 3152 3152 3152 3151 3150 3149 3148 3146 3145 3144 3144 3143 3141
3095 3091 3089 3093 3097 3102 3109 3114 3116 3122 3126 3127 3130 3133 3137 3139 3142 3144 3146 3147 3149 3149 3150 3151 3150 3151 3151 3150 3149 3149 3148 3146 3146 3145 3145 3143 3141 3139 3138 3138 3136 3135 3133
3099 3097 3098 3097 3100 3103 3110 3112 3118 3122 3126 3129 3132 3134 3135 3135 3139 3141 3143 3144 3146 3148 3149 3148 3148 3147 3147 3146 3146 3146 3144 3143 3142 3141 3138 3136 3135 3133 3132 3130 3128 3126 3124
3106 3105 3104 3104 3110 3112 3115 3118 3123 3126 3132 3134 3134 3136 3138 3140 3141 3141 3142 3143 3144 3145 3146 3147 3146 3144 3143 3142 3141 3140 3139 3138 3136 3134 3132 3130 3128 3126 3124 3122 3120 3118 3115
3107 3109 3112 3113 3115 3118 3120 3123 3125 3127 3130 3132 3134 3136 3138 3139 3140 3140 3141 3142 3142 3143 3143 3143 3142 3141 3139 3138 3137 3134 3133 3132 3129 3128 3126 3125 3122 3120 3117 3115 3112 3111 3109
3112 3112 3114 3116 3118 3122 3124 3128 3128 3129 3130 3132 3133 3134 3135 3137 3138 3139 3138 3139 3140 3140 3139 3138 3137 3136 3133 3132 3130 3128 3126 3125 3123 3120 3119 3116 3113 3111 3109 3106 3103 3100 3100
3113 3115 3116 3118 3120 3122 3125 3127 3129 3130 3131 3132 3132 3133 3133 3134 3135 3136 3136 3137 3137 3136 3134 3133 3131 3129 3127 3126 3124 3121 3118 3116 3114 3111 3109 3106 3103 3101 3099 3098 3095 3092 3090
3115 3117 3119 3120 3121 3123 3123 3125 3128 3129 3130 3130 3130 3131 3132 3132 3132 3134 3134 3133 3133 3132 3130 3128 3126 3124 3121 3120 3118 3115 3113 3111 3109 3106 3103 3099 3096 3093 3089 3086 3085 3084 3082
3117 3118 3120 3121 3121 3123 3123 3124 3126 3126 3127 3128 3129 3129 3130 3131 3131 3132 3131 3131 3129 3128 3126 3124 3122 3119 3117 3114 3112 3110 3106 3103 3100 3097 3094 3091 3088 3087 3085 3082 3079 3076 3073
3117 3118 3121 3122 3121 3122 3123 3124 3125 3125 3126 3127 3127 3128 3129 3128 3130 3129 3127 3126 3124 3122 3120 3119 3117 3114 3111 3108 3105 3101 3098 3095 3093 3090 3088 3086 3083 3081 3079 3079 3075 3071 3069
3117 3118 3120 3121 3121 3122 3121 3122 3123 3123 3125 3127 3125 3127 3128 3129 3127 3124 3121 3118 3117 3115 3113 3112 3109 3106 3103 3100 3097 3093 3091 3089 3086 3083 3080 3079 3077 3074 3070 3070 3070 3068 3064
3116 3116 3118 3118 3120 3121 3121 3122 3123 3124 3125 3126 3126 3126 3123 3122 3120 3117 3115 3113 3112 3111 3111 3110 3107 3104 3101 3097 3093 3090 3087 3084 3081 3077 3074 3073 3069 3067 3065 3064 3064 3061 3059
3113 3114 3116 3117 3118 3120 3120 3121 3121 3121 3121 3121 3120 3119 3117 3117 3115 3114 3112 3111 3109 3108 3107 3105 3103 3099 3095 3093 3089 3085 3081 3078 3076 3072 3069 3066 3064 3063 3061 3057 3056 3053 3051
3111 3113 3115 3115 3117 3117 3118 3120 3119 3118 3118 3117 3118 3116 3114 3113 3113 3111 3110 3108 3106 3104 3101 3099 3099 3095 3090 3088 3085 3080 3076 3072 3068 3065 3062 3058 3057 3054 3054 3052 3049 3047 3045
3108 3110 3113 3113 3114 3114 3116 3116 3116 3115 3115 3116 3115 3113 3112 3111 3109 3107 3106 3104 3103 3100 3097 3095 3094 3091 3087 3083 3079 3075 3071 3066 3062 3058 3054 3051 3049 3048 3047 3045 3042 3041 3039